Regional Weather Roundup
Issued by NWS

Home | Current Version | Previous Version | Text Only | Print | Product List | Glossary Off
Versions: 1 2 3 4 5 6 7 8 9 10 11 12 13 14 15 16 17 18 19 20 21 22 23 24 25 26 27 28 29 30 31 32 33 34 35 36 37 38 39 40 41 42 43 44 45 46 47 48 49 50

000
ASUS43 KTOP 151908
RWRKS

WEATHER ROUNDUP FOR KANSAS
NATIONAL WEATHER SERVICE GOODLAND KS
200 PM CDT TUE APR 15 2014

NOTE:  "FAIR" INDICATES FEW OR NO CLOUDS BELOW 12,000 FEET WITH NO
SIGNIFICANT WEATHER AND/OR OBSTRUCTIONS TO VISIBILITY.

KSZ001>006-013>018-027>032-041>047-152000-
NORTHWEST KANSAS

CITY           SKY/WX    TMP DP  RH WIND       PRES   REMARKS
GOODLAND       CLOUDY    61  17  18 SW17G28   29.90F
HAYS           SUNNY     63  19  19 S25G33    30.00F
HILL CITY      MOSUNNY   64  20  18 SW21G32   29.95F
RUSSELL        SUNNY     61  17  18 SW20G31   30.00F
$$

KSZ061>065-074>080-084>089-152000-
SOUTHWEST KANSAS

CITY           SKY/WX    TMP DP  RH WIND       PRES   REMARKS
DODGE CITY     SUNNY     60  24  25 SW22G35   30.04F
ELKHART          N/A     59  26  28 S17         N/A
GARDEN CITY    SUNNY     61  26  26 SW23G31   30.00F
GREAT BEND     SUNNY     61  19  20 S22G31    30.03F
LIBERAL        SUNNY     61  27  27 SW23G31   30.04F
PRATT          SUNNY     59  19  21 SW17G26   30.09F
$$

KSZ066>073-081>083-090>101-152000-
SOUTHEAST KANSAS

CITY           SKY/WX    TMP DP  RH WIND       PRES   REMARKS
CHANUTE        SUNNY     53  26  35 S9        30.18F
COFFEYVILLE    SUNNY     57  23  26 W8G23     30.19F
HUTCHINSON     SUNNY     61  18  18 S13G25    30.08F
MEDICINE LODGE   N/A     60  15  17 S16G23    30.09F
NEWTON         SUNNY     57  21  24 SW14G23   30.14F
PARSONS        SUNNY     56  23  27 VRB5      30.19F
WICHITA INTL   MOSUNNY   58  20  22 SW14G22   30.12F
WICHITA JABRA  SUNNY     57  25  29 S13G21    30.12F
WICHITA MCCONL SUNNY     58  20  23 S16       30.12F
WINFIELD       SUNNY     59  23  25 S13G18    30.16F
$$

KSZ007>012-019>026-033>040-048>060-102>105-152000-
NORTHEAST KANSAS

CITY           SKY/WX    TMP DP  RH WIND       PRES   REMARKS
CONCORDIA      SUNNY     57  21  24 S20G25    30.04F
EMPORIA        SUNNY     55  22  27 SW12G22   30.13F
LAWRENCE       SUNNY     51  21  30 SW5       30.16F
MANHATTAN      SUNNY     57  24  28 SW12G22   30.09F
OLATHE IND     SUNNY     50  24  36 S9        30.18F
OLATHE EXE     SUNNY     49  24  37 VRB7      30.17F
SALINA         SUNNY     60  18  19 S14       30.07F
TOPEKA BILLARD SUNNY     53  25  33 S10       30.15F
TOPEKA FORBES  SUNNY     52  24  33 SE7       30.14F
$$



USA.gov is the U.S. government's official web portal to all federal, state and local government web resources and services.